Retour au catalogue

COSMOS 1275 DEB

ActifPO
NORAD 17792·DEBRIS·🇷🇺 Russia

Lancé Jun 4, 1981 depuis Plesetsk Cosmodrome

Loading…

Prochains Passages (prochaines 24 heures)

TLE

FraisSource: Space-Track

Époque: Sep 14, 2026, 22:22 UTC

1 17792U 81053LN  26257.93246868  .00001466  00000-0  76770-3 0  9998
2 17792  82.9556 180.3922 0013576 335.5172 141.8320 14.13675805109319

Suivez COSMOS 1275 DEB en temps réel avec AllMySat

Download on the App Store